Hourly Weather Rudsk

Today, 20 April, Tuesday

Time Temperature Precipitation Wind Pressure Humidity
00:00 +6°C° 0 mm 2 mps 749 mmHg 85%
01:00 +5°C° 0 mm 2 mps 749 mmHg 88%
02:00 +5°C° 0 mm 2 mps 749 mmHg 92%
03:00 +4°C° 0 mm 2 mps 748 mmHg 93%
04:00 +4°C° 0 mm 2 mps 748 mmHg 94%
05:00 +3°C° 0 mm 3 mps 748 mmHg 95%
06:00 +4°C° 0 mm 3 mps 748 mmHg 90%
07:00 +5°C° 0 mm 3 mps 748 mmHg 85%
08:00 +8°C° 0 mm 3 mps 748 mmHg 81%
09:00 +9°C° 0 mm 3 mps 748 mmHg 75%
10:00 +10°C° 0 mm 3 mps 748 mmHg 69%
11:00 +11°C° 0 mm 3 mps 747 mmHg 63%
12:00 +11°C° 0.1 mm 3 mps 747 mmHg 62%
13:00 +11°C° 0.1 mm 3 mps 747 mmHg 62%
14:00 +11°C° 0.1 mm 3 mps 747 mmHg 61%
15:00 +11°C° 0 mm 3 mps 746 mmHg 60%
16:00 +12°C° 0 mm 2 mps 746 mmHg 60%
17:00 +12°C° 0 mm 2 mps 746 mmHg 60%
18:00 +11°C° 0.1 mm 1 mps 746 mmHg 66%
19:00 +10°C° 0.1 mm 1 mps 746 mmHg 72%
20:00 +8°C° 0.1 mm 1 mps 746 mmHg 78%
21:00 +8°C° 0 mm 1 mps 746 mmHg 80%
22:00 +7°C° 0 mm 1 mps 746 mmHg 83%
23:00 +6°C° 0 mm 0 mps 746 mmHg 85%

Tomorrow, 21 April, Wednesday

Time Temperature Precipitation Wind Pressure Humidity
00:00 +7°C° 0 mm 1 mps 745 mmHg 86%
01:00 +7°C° 0 mm 1 mps 745 mmHg 86%
02:00 +6°C° 0 mm 1 mps 745 mmHg 87%
03:00 +6°C° 0 mm 2 mps 745 mmHg 88%
04:00 +6°C° 0 mm 2 mps 745 mmHg 89%
05:00 +6°C° 0 mm 2 mps 745 mmHg 90%
06:00 +7°C° 0 mm 2 mps 745 mmHg 86%
07:00 +8°C° 0 mm 2 mps 745 mmHg 83%
08:00 +8°C° 0 mm 2 mps 745 mmHg 80%
09:00 +10°C° 0.2 mm 2 mps 745 mmHg 73%
10:00 +11°C° 0.2 mm 3 mps 744 mmHg 66%
11:00 +13°C° 0.2 mm 3 mps 744 mmHg 59%
12:00 +13°C° 0.4 mm 3 mps 744 mmHg 56%
13:00 +14°C° 0.4 mm 4 mps 744 mmHg 54%
14:00 +14°C° 0.4 mm 4 mps 744 mmHg 51%
15:00 +14°C° 0.3 mm 4 mps 744 mmHg 55%
16:00 +13°C° 0.3 mm 4 mps 744 mmHg 59%
17:00 +13°C° 0.3 mm 4 mps 744 mmHg 63%
18:00 +11°C° 0.4 mm 4 mps 744 mmHg 71%
19:00 +10°C° 0.4 mm 3 mps 744 mmHg 79%
20:00 +8°C° 0.4 mm 3 mps 744 mmHg 87%
21:00 +8°C° 0.1 mm 3 mps 744 mmHg 88%
22:00 +8°C° 0.1 mm 3 mps 744 mmHg 89%
23:00 +8°C° 0.1 mm 3 mps 744 mmHg 90%

Day after tomorrow, 22 April, Thursday

Time Temperature Precipitation Wind Pressure Humidity
00:00 +7°C° 0 mm 3 mps 744 mmHg 91%
01:00 +7°C° 0 mm 3 mps 744 mmHg 92%
02:00 +5°C° 0 mm 3 mps 744 mmHg 93%
03:00 +5°C° 0 mm 3 mps 744 mmHg 93%
04:00 +5°C° 0 mm 3 mps 744 mmHg 92%
05:00 +4°C° 0 mm 3 mps 744 mmHg 92%
06:00 +6°C° 0 mm 4 mps 745 mmHg 86%
07:00 +7°C° 0 mm 4 mps 745 mmHg 81%
08:00 +8°C° 0 mm 4 mps 745 mmHg 75%
09:00 +11°C° 0 mm 4 mps 746 mmHg 67%
10:00 +12°C° 0 mm 4 mps 746 mmHg 59%
11:00 +14°C° 0 mm 5 mps 746 mmHg 52%
12:00 +14°C° 0 mm 4 mps 746 mmHg 50%
13:00 +15°C° 0 mm 4 mps 746 mmHg 48%
14:00 +15°C° 0 mm 4 mps 746 mmHg 46%
15:00 +13°C° 0.6 mm 4 mps 746 mmHg 59%
16:00 +11°C° 0.6 mm 4 mps 746 mmHg 71%
17:00 +8°C° 0.6 mm 4 mps 746 mmHg 84%
18:00 +9°C° 0.6 mm 3 mps 747 mmHg 87%
19:00 +8°C° 0.6 mm 3 mps 747 mmHg 89%
20:00 +8°C° 0.6 mm 2 mps 747 mmHg 92%
21:00 +7°C° 0.2 mm 2 mps 747 mmHg 88%
22:00 +7°C° 0.2 mm 2 mps 747 mmHg 84%
23:00 +7°C° 0.2 mm 2 mps 747 mmHg 79%

23 April, Friday

Time Temperature Precipitation Wind Pressure Humidity
00:00 +6°C° 0 mm 2 mps 747 mmHg 79%
01:00 +5°C° 0 mm 2 mps 747 mmHg 78%
02:00 +5°C° 0 mm 2 mps 747 mmHg 77%
03:00 +5°C° 0 mm 2 mps 747 mmHg 77%
04:00 +5°C° 0 mm 2 mps 747 mmHg 76%
05:00 +5°C° 0 mm 2 mps 747 mmHg 76%
06:00 +4°C° 0 mm 3 mps 747 mmHg 74%
07:00 +4°C° 0 mm 3 mps 748 mmHg 73%
08:00 +5°C° 0 mm 4 mps 748 mmHg 71%
09:00 +5°C° 0 mm 4 mps 748 mmHg 68%
10:00 +6°C° 0 mm 5 mps 748 mmHg 64%
11:00 +7°C° 0 mm 6 mps 748 mmHg 61%
12:00 +7°C° 0.1 mm 6 mps 748 mmHg 58%
13:00 +6°C° 0.1 mm 7 mps 748 mmHg 56%
14:00 +6°C° 0.1 mm 8 mps 748 mmHg 53%
15:00 +6°C° 0.1 mm 7 mps 749 mmHg 56%
16:00 +6°C° 0.1 mm 7 mps 749 mmHg 59%
17:00 +7°C° 0.1 mm 6 mps 749 mmHg 62%
18:00 +5°C° 0 mm 6 mps 749 mmHg 67%
19:00 +4°C° 0 mm 6 mps 749 mmHg 72%
20:00 +3°C° 0 mm 5 mps 749 mmHg 78%
21:00 +2°C° 0 mm 5 mps 750 mmHg 80%
22:00 +2°C° 0 mm 5 mps 750 mmHg 82%
23:00 +1°C° 0 mm 6 mps 750 mmHg 84%

24 April, Saturday

Time Temperature Precipitation Wind Pressure Humidity
00:00 0°C° 0 mm 5 mps 750 mmHg 85%
01:00 0°C° 0 mm 5 mps 751 mmHg 86%
02:00 -1°C° 0 mm 5 mps 751 mmHg 87%
03:00 -2°C° 0 mm 4 mps 751 mmHg 88%
04:00 -2°C° 0 mm 4 mps 751 mmHg 89%
05:00 -3°C° 0 mm 4 mps 751 mmHg 90%
06:00 -1°C° 0 mm 4 mps 751 mmHg 80%
07:00 0°C° 0 mm 4 mps 752 mmHg 70%
08:00 +1°C° 0 mm 4 mps 752 mmHg 60%
09:00 +4°C° 0 mm 4 mps 752 mmHg 55%
10:00 +5°C° 0 mm 4 mps 751 mmHg 50%
11:00 +7°C° 0 mm 5 mps 751 mmHg 45%
12:00 +7°C° 0 mm 5 mps 751 mmHg 44%
13:00 +7°C° 0 mm 5 mps 750 mmHg 43%
14:00 +8°C° 0 mm 6 mps 750 mmHg 42%
15:00 +7°C° 0.2 mm 6 mps 749 mmHg 56%
16:00 +6°C° 0.2 mm 5 mps 749 mmHg 70%
17:00 +5°C° 0.2 mm 5 mps 748 mmHg 84%
18:00 +3°C° 0.3 mm 5 mps 748 mmHg 86%
19:00 +4°C° 0.3 mm 4 mps 748 mmHg 87%
20:00 +3°C° 0.3 mm 3 mps 748 mmHg 89%
21:00 +3°C° 0.1 mm 4 mps 748 mmHg 89%
22:00 +1°C° 0.1 mm 4 mps 749 mmHg 90%
23:00 +1°C° 0.1 mm 4 mps 749 mmHg 91%

25 April, Sunday

Time Temperature Precipitation Wind Pressure Humidity
00:00 0°C° 0 mm 4 mps 749 mmHg 91%
01:00 -1°C° 0 mm 4 mps 750 mmHg 90%
02:00 -2°C° 0 mm 4 mps 750 mmHg 90%
03:00 -2°C° 0 mm 5 mps 750 mmHg 91%
04:00 -4°C° 0 mm 5 mps 750 mmHg 93%
05:00 -4°C° 0 mm 5 mps 750 mmHg 94%
06:00 -2°C° 0 mm 5 mps 751 mmHg 88%
07:00 -2°C° 0 mm 6 mps 751 mmHg 81%
08:00 0°C° 0 mm 7 mps 751 mmHg 75%
09:00 +2°C° 0.1 mm 7 mps 751 mmHg 69%
10:00 +2°C° 0.1 mm 8 mps 751 mmHg 64%
11:00 +4°C° 0.1 mm 8 mps 751 mmHg 58%
12:00 +4°C° 0.1 mm 8 mps 751 mmHg 56%
13:00 +4°C° 0.1 mm 8 mps 751 mmHg 54%
14:00 +5°C° 0.1 mm 8 mps 751 mmHg 52%
15:00 +5°C° 0.2 mm 7 mps 751 mmHg 55%
16:00 +5°C° 0.2 mm 7 mps 751 mmHg 58%
17:00 +5°C° 0.2 mm 7 mps 752 mmHg 61%
18:00 +3°C° 0.1 mm 6 mps 752 mmHg 65%
19:00 +2°C° 0.1 mm 5 mps 752 mmHg 69%
20:00 +1°C° 0.1 mm 4 mps 752 mmHg 74%
21:00 0°C° 0 mm 4 mps 752 mmHg 77%
22:00 -1°C° 0 mm 4 mps 753 mmHg 80%
23:00 -1°C° 0 mm 3 mps 753 mmHg 83%
Show more